Simultaneous Nadir Overpasses (SNOs) Predictions

Prediction of SNOs between LANDSAT-8 and NOAA-19 Satellite Orbit:

Table of predicted SNOs for the next 14.0 days since TLE Epoch: 12/16/2017
Index Date (LANDSAT-8) Time (LANDSAT-8) Lat,Lon (LANDSAT-8) SZA (LANDSAT-8 ) Date (NOAA-19) Time (NOAA-19) Lat,Lon (NOAA-19) SZA (NOAA-19 ) Distance(km) Time Diff (sec)
1 12/18/2017 05:05:08 76.95, 115.06 100.54 12/18/2017 05:04:37 76.96, 115.13 100.55 2.33 31
2 12/18/2017 05:54:36 -76.92, -77.41 79.50 12/18/2017 05:55:33 -76.92, -77.43 79.49 0.68 57
3 12/20/2017 10:38:53 -76.97,-148.29 79.41 12/20/2017 10:38:16 -76.99,-148.32 79.40 1.64 37
4 12/20/2017 11:28:20 76.91, 19.12 100.52 12/20/2017 11:29:18 76.91, 19.26 100.54 3.46 58
5 12/22/2017 16:12:36 77.01, -51.60 100.62 12/22/2017 16:12:01 77.00, -51.75 100.61 3.79 35
6 12/22/2017 17:02:05 -76.94, 115.77 79.46 12/22/2017 17:02:58 -76.95, 115.71 79.44 2.61 53
7 12/24/2017 21:46:22 -76.98, 44.87 79.46 12/24/2017 21:45:40 -76.98, 44.98 79.46 2.70 42
8 12/24/2017 22:35:48 76.96,-147.55 100.52 12/24/2017 22:36:42 76.96,-147.65 100.52 2.65 54
9 12/27/2017 03:20:05 77.01, 141.53 100.49 12/27/2017 03:19:24 77.01, 141.49 100.49 1.22 41
10 12/27/2017 04:09:34 -76.94, -51.08 79.60 12/27/2017 04:10:22 -76.96, -51.02 79.56 2.69 48
11 12/29/2017 08:53:50 -77.03,-121.83 79.62 12/29/2017 08:53:05 -77.04,-121.97 79.62 3.47 45




NCC Satellite Simultaneous Nadir Overpasses (SNOs) Prediction Service
